weather.gov     
National Weather Service

Regional Weather Roundup
NWS Homepage
This page is being discontinued on March 12, 2014.
The same data is available at this site. Please update your bookmarks.
Thank you, and we apologize for the inconvenience.
Please send an email to SR-SRH.Webmaster@noaa.gov with any concerns.


Current Version
Previous Version:    01  02  03  04  05  06  07  08  09  10  11  12  13  14  15  16  17  18  19  20  21  22  23  24  25  26  27  28  29  30  
   31  32  33  34  35  36  37  38  39  40  41  42  43  44  45  46  47  48  49  50  51  52  53  54  55  56  57  58  59  60  
[Printable]
124
ASUS43 KJKL 180119
RWRJKL

EAST KENTUCKY HOURLY WEATHER ROUNDUP
NATIONAL WEATHER SERVICE JACKSON KY
900 PM EDT WED SEP 17 2014

NOTE: "FAIR" INDICATES FEW OR NO CLOUDS BELOW 12,000 FEET WITH
NO SIGNIFICANT WEATHER AND/OR OBSTRUCTIONS TO VISIBILITY.

* THESE REPORTS ARE NOT UNDER NWS QUALITY CONTROL AND MAY NOT
  REPORT WEATHER SUCH AS PRECIPITATION AND FOG.

KYZ079-080-083-085-087-088-110-112-115-119-120-180200
...EASTERN KENTUCKY...

CITY           SKY/WX    TMP DP  RH WIND       PRES   REMARKS
JACKSON        CLEAR     63  53  70 CALM      30.00R
LONDON         CLEAR     63  56  78 CALM      30.00S
MONTICELLO*    CLEAR     59  56  89 CALM      29.99F
MIDDLESBORO*   CLEAR     61  56  85 W3        30.00R
HARLAN APT*    CLEAR     61  59  94 MISG      30.01R
HAZARD APT*    CLEAR     61  59  94 CALM      30.00
PIKEVILLE APT* CLEAR     61  54  77 CALM      30.00R
BIG SANDY*     CLEAR     58  56  96 CALM      29.99R
MOREHEAD APT*  CLOUDY    59  54  82 CALM      30.01R
ASHLAND*       CLEAR     61  54  77 CALM      29.97R
$$

KYZ035-036-041-042-044-050-067-078-099-180200
...CENTRAL KENTUCKY...

CITY           SKY/WX    TMP DP  RH WIND       PRES   REMARKS
MT STERLING*   PTCLDY    59  54  82 CALM      30.00S
FLEMING/MASON* CLEAR     61  50  67 CALM      30.00R
DANVILLE*      CLEAR     59  54  82 CALM      29.99R
RICHMOND*      CLEAR     59  54  82 E3        29.97F
LEXINGTON      CLEAR     61  52  72 NE5       29.98S
FRANKFORT      CLEAR     56  53  90 CALM      29.97R
$$

KYZ091>093-OHZ055-061-077-WVZ005-015-034-035-042-180200
...SOUTHERN OHIO/WEST VIRGINIA...

CITY           SKY/WX    TMP DP  RH WIND       PRES   REMARKS
COVINGTON      PTCLDY    60  49  66 N3        29.98S
COLUMBUS       PTCLDY    61  48  62 N3        29.98S
DAYTON         CLEAR     60  48  64 SE3       30.00S
WILMINGTON     CLEAR     54  48  80 N3        30.00R
HUNTINGTON     PTCLDY    60  57  89 SE3       29.97S
CHARLESTON     MOCLDY    62  60  93 CALM      29.97S
PINEVILLE*     PTCLDY    59  59 100 MISG      30.04S FOG
BECKLEY        CLOUDY    61  56  83 N6        30.02S
BLUEFIELD      MOCLDY    63  57  81 W3        30.03S
$$

VAZ002-007-008-TNZ017-027-036-066-071-180200
...SOUTHWEST VIRGINIA/EAST TENNESSEE...

CITY           SKY/WX    TMP DP  RH WIND       PRES   REMARKS
WISE*          CLEAR     59  55  88 CALM      30.04R
JONESVILLE*    CLEAR     61  57  88 CALM      30.01R
ABINGDON*      CLEAR     62  58  88 CALM      29.99S
BRISTOL        PTCLDY    62  54  74 CALM      29.98R
KNOXVILLE      PTCLDY    66  57  72 SW6       29.96R
OAK RIDGE      PTCLDY    65  58  78 CALM      29.99R
CROSSVILLE     PTCLDY    60  55  83 CALM      30.01S
NASHVILLE      CLOUDY    65  58  78 CALM      29.97R
$$

...KEY TO REMARKS...
VSB - VISIBILITY IN MILES
WCI - WIND CHILL INDEX
HX  - HEAT INDEX

$$




U.S. Dept. of Commerce
NOAA National Weather Service
1325 East West Highway
Silver Spring, MD 20910
E-mail: w-nws.webmaster@noaa.gov
Page last modified: May 16, 2007
NATIONAL WEATHER SERVICE: for Safety, for Work, for Fun - FOR LIFE